Location: Brede
(50.9167°N, 0.6000°E)
Time: 06:04:04
(UTC+00:00)

A-11 Canister half - All Passes

Search period start: 27 November 2020 00:00
Search period end: 07 December 2020 00:00
Orbit: 1525 x 1684 km, 47.3° (Epoch: 26 November)

Date Brightness Start Highest point End Pass type
(mag) Time Alt. Az. Time Alt. Az. Time Alt. Az.
27 Nov - 05:32:49 10° SSW 05:41:32 34° SE 05:50:06 10° E visible
27 Nov - 07:35:35 10° WSW 07:45:30 64° SSE 07:55:10 10° E daylight
27 Nov - 09:40:17 10° W 09:50:14 72° S 09:59:51 10° ESE daylight
27 Nov - 11:45:19 10° W 11:54:35 48° SSW 12:03:33 10° SE daylight
27 Nov - 13:51:41 10° W 13:57:42 19° SW 14:03:37 10° SSW daylight
28 Nov - 05:11:19 10° SSW 05:19:55 33° SE 05:28:24 10° E visible
28 Nov - 07:13:56 10° WSW 07:23:51 63° SSE 07:33:31 10° E daylight
28 Nov - 09:18:36 10° W 09:28:34 72° S 09:38:14 10° ESE daylight
28 Nov - 11:23:37 10° W 11:32:58 49° SSW 11:42:01 10° SE daylight
28 Nov - 13:29:49 10° W 13:36:09 20° SW 13:42:22 10° S daylight
29 Nov - 04:49:50 10° SSW 04:58:19 32° SE 05:06:41 10° E visible
29 Nov - 06:52:17 10° WSW 07:02:12 62° SSE 07:11:53 10° E visible
29 Nov - 08:56:54 10° W 09:06:55 73° S 09:16:36 10° ESE daylight
29 Nov - 11:01:55 10° W 11:11:21 51° SSW 11:20:28 10° SE daylight
29 Nov - 13:07:59 10° W 13:14:36 21° SW 13:21:05 10° S daylight
30 Nov - 04:28:22 10° SSW 04:36:43 31° SE 04:44:59 10° E visible
30 Nov - 06:30:40 10° SW 06:40:33 61° SSE 06:50:14 10° E visible
30 Nov - 08:35:13 10° W 08:45:14 73° S 08:54:58 10° ESE daylight
30 Nov - 10:40:14 10° W 10:49:44 52° SSW 10:58:55 10° SE daylight
30 Nov - 12:46:10 10° W 12:53:03 22° SW 12:59:47 10° S daylight
01 Dec - 04:06:54 10° S 04:15:07 29° SE 04:23:16 10° E visible
01 Dec - 06:09:01 10° SW 06:18:54 60° SSE 06:28:34 10° E visible
01 Dec - 08:13:32 10° W 08:23:35 73° S 08:33:20 10° E daylight
01 Dec - 10:18:33 10° W 10:28:06 54° SSW 10:37:22 10° SE daylight
01 Dec - 12:24:22 10° W 12:31:29 23° SW 12:38:28 10° S daylight
02 Dec - 03:45:27 10° S 03:53:31 28° SE 04:01:33 10° E visible
02 Dec - 05:47:23 10° SW 05:57:15 58° SSE 06:06:55 10° E visible
02 Dec - 07:51:50 10° W 08:01:55 73° S 08:11:42 10° E daylight
02 Dec - 09:56:50 10° W 10:06:29 55° SSW 10:15:48 10° SE daylight
02 Dec - 12:02:35 10° W 12:09:56 25° SW 12:17:07 10° S daylight
03 Dec - 03:24:01 10° S 03:31:57 27° SE 03:39:48 10° E visible
03 Dec - 05:25:46 10° SW 05:35:36 57° SSE 05:45:16 10° E visible
03 Dec - 07:30:10 10° W 07:40:15 73° S 07:50:04 10° E daylight
03 Dec - 09:35:09 10° W 09:44:51 56° SSW 09:54:13 10° SE daylight
03 Dec - 11:40:48 10° W 11:48:21 26° SW 11:55:46 10° S daylight
04 Dec - 03:02:37 10° S 03:10:21 26° SE 03:18:03 10° E visible
04 Dec - 05:04:09 10° SW 05:13:57 56° SSE 05:23:36 10° E visible
04 Dec - 07:08:29 10° W 07:18:34 73° S 07:28:25 10° E daylight
04 Dec - 09:13:28 10° W 09:23:13 58° SSW 09:32:39 10° SE daylight
04 Dec - 11:19:02 10° W 11:26:48 27° SW 11:34:22 10° S daylight
05 Dec - 02:41:13 10° S 02:48:46 25° SE 02:56:16 10° E visible
05 Dec - 04:42:32 10° SW 04:52:18 54° SSE 05:01:56 10° E visible
05 Dec - 06:46:47 10° W 06:56:54 73° S 07:06:46 10° E visible
05 Dec - 08:51:46 10° W 09:01:34 59° SSW 09:11:04 10° SE daylight
05 Dec - 10:57:16 10° W 11:05:13 28° SW 11:12:59 10° S daylight
06 Dec - 02:19:50 10° S 02:27:10 23° SE 02:34:30 10° E visible
06 Dec - 04:20:56 10° SW 04:30:39 53° SSE 04:40:16 10° E visible
06 Dec - 06:25:07 10° WSW 06:35:14 73° S 06:45:07 10° E visible
06 Dec - 08:30:05 10° W 08:39:56 60° SSW 08:49:28 10° SE daylight
06 Dec - 10:35:31 10° W 10:43:38 30° SW 10:51:34 10° SSE daylight
